www.pogodaiklimat.ru

Погода и климат >> Архив погоды >> Казахстан >> Жангизтобе


АРХИВ ПОГОДЫ в Жангизтобе

Время (UTC), дата Ветер
(напр.,м/с)
 
Видим.   Явления Облачность Т
(С)
Тd
(С)
f
(%)
Тe
(С)
Тes
(С)
Комфортность P
(гПа)
Po
(гПа)
Тmin
(С)
Tmax
(С)
R
(мм)
R24
(мм)
S
(см)
09 11.08 С 4 50 км ясно +27.1 +3.1 21 +26 +33 жарко 1011.5 961.0
12 11.08 С 2 50 км ясно +26.2 +4.3 24 +25 +27 комфорт 1010.7 960.1
15 11.08 С 2 н/о ясно +21.0 +5.1 35 +22 +22 комфорт 1011.6 960.1 +28.0
18 11.08 штиль 0 н/о ясно +18.0 +6.1 46 +18 +18 1011.3 959.3 +28.0
21 11.08 штиль 0 н/о ясно +11.8 +4.5 61 +11 +11 1011.6 958.5
00 12.08 штиль 0 50 км ясно +10.3 +4.9 69 +10 +10 1011.8 958.4
03 12.08 СЗ 2 50 км 4/0
[Ci fib]
+21.0 +6.2 38 +23 +29 комфорт 1009.3 957.9
06 12.08 СЗ 2 50 км 3/0
[Ci fib]
+26.2 +6.3 28 +26 +39 жарко 1006.9 956.5 +9.7
09 12.08 СЗ 2 50 км 4/0
[Ci fib]
+30.0 +4.0 19 +28 +38 жарко 1004.6 954.9
12 12.08 СЗ 2 50 км 4/0
[Ci fib]
+30.0 +4.3 20 +28 +30 жарко 1003.4 953.8
15 12.08 С 2 н/о 3/0
[Ci fib]
+25.2 +7.1 31 +25 +25 комфорт 1004.5 954.1 +31.3
18 12.08 штиль 0 н/о ясно +19.3 +6.4 43 +20 +20 1006.2 954.7 +31.3
21 12.08 штиль 0 н/о ясно +14.7 +5.9 56 +15 +15 1006.7 954.4
00 13.08 штиль 0 50 км 4/0
[Ac lent Ci fib]
+14.0 +6.0 59 +14 +14 1006.2 953.8
03 13.08 Ю 8 50 км ясно +27.0 +3.4 22 +26 +27 жарко 1003.2 953.1
06 13.08 Ю 8 50 км ясно +35.0 +6.3 17 +33 +35 жарко 1000.8 952.1 +13.2
09 13.08 З 4 50 км 8/8 1000 м
[Cu med, cong]
+37.0 +7.9 17 +35 +36 очень
жарко
999.5 951.2
12 13.08 З 4 50 км 6/4 1000 м
[Sc Ci fib]
+35.0 -0.9 10 +31 +32 жарко 999.9 951.2
15 13.08 З 4 н/о 6/6 1000 м
[Sc]
+29.0 +6.6 24 +28 +28 жарко 1000.5 950.9 +38.5
18 13.08 З 4 н/о 8/8 1000 м
[Sc]
+20.5 +8.8 47 +22 +22 комфорт 1002.2 951.2 +38.5
21 13.08 З 4 н/о 6/6 1000 м
[Sc]
+15.0 +7.1 59 +14 +14 1003.5 951.4
00 14.08 З 4 50 км {ливн. осадки} 10/10 1000 м
[Cb calv]
+23.0 +10.6 45 +25 +25 комфорт 1005.8 955.0
03 14.08 СЗ 2 50 км 10/10 1000 м
[Cb calv]
+24.0 +7.6 35 +24 +24 комфорт 1007.0 956.3
06 14.08 З 2 10 км слаб. ливневой дождь 10/10 1000 м
[Cb calv]
+21.0 +14.8 68 +25 +25 комфорт 1009.6 958.4 +14.5 0.0
09 14.08 В 6 50 км {ливн. осадки} 8/6 1000 м
[Sc diur, vesp Ci fib]
+26.5 +11.8 40 +28 +29 жарко 1006.7 956.5
12 14.08 В 8 50 км {ливн. осадки} 3/0
[Ac trans]
+27.1 +10.1 34 +28 +28 жарко 1005.8 955.7
15 14.08 Ю 4 н/о 1/0
[Ac lent]
+23.3 +10.3 44 +25 +25 комфорт 1006.8 956.0 +28.0
18 14.08 Ю 4 н/о 4/0
[Ac lent Ci fib]
+21.0 +11.5 55 +23 +23 комфорт 1007.6 956.4 +28.0 0.3
21 14.08 Ю 4 н/о 4/3 1000 м
[Sc diur, vesp Ac cast]
+19.0 +11.9 63 +20 +20 1007.2 955.7
00 15.08 Ю 2 50 км 8/8 1000 м
[Sc]
+19.0 +12.3 65 +21 +21 комфорт 1007.0 955.5
03 15.08 Ю 2 50 км {ливн. осадки} 8/8 1000 м
[Sc]
+23.4 +12.0 49 +26 +27 жарко 1006.3 955.6 +17.7
06 15.08 Ю 2 50 км в посл. час ливневой дождь 10/10 1000 м
[Cb calv]
+22.0 +9.2 44 +23 +23 комфорт 1009.1 958.0 +17.7
09 15.08 З 4 50 км {ливн. осадки} 10/10 1000 м
[Cb calv]
+19.0 +10.2 57 +20 +20 1010.0 958.3
12 15.08 З 4 50 км {ливн. осадки} 10/10 1000 м
[Cb calv]
+21.5 +9.7 47 +23 +23 комфорт 1009.2 958.0
15 15.08 В 6 н/о 6/6 1000 м
[Sc]
+20.5 +11.5 56 +22 +22 комфорт 1008.8 957.5 +24.9
18 15.08 В 4 н/о 4/0
[Ac lent Ci sp]
+17.3 +9.2 59 +17 +17 1010.0 958.0 +24.9 0.2
21 15.08 Ю 2 н/о 9/0
[Ac und Ci fib]
+16.6 +10.1 65 +17 +17 1009.7 957.6
00 16.08 штиль 0 50 км 3/0
[Ac lent]
+14.7 +9.6 71 +14 +15 1011.0 958.5
03 16.08 Ю 2 50 км 1/0
[Ci fib]
+20.3 +10.3 53 +22 +29 комфорт 1011.2 959.7
06 16.08 Ю 2 50 км 6/3 1000 м
[Cu med, cong Ac lent Ci fib]
+24.2 +9.4 39 +25 +33 комфорт 1010.1 959.3 +14.0
09 16.08 штиль 0 50 км 9/9 1000 м
[Cu med, cong]
+26.8 +5.5 26 +26 +27 жарко 1008.0 957.7
12 16.08 З 2 50 км гроза без осадков {ливн. осадки} 10/10 1000 м
[Cb cap]
+20.4 +11.6 57 +23 +23 комфорт 1009.7 958.3
15 16.08 З 2 н/о {гроза, ливн. осадки} 10/10 1000 м
[Cb cap]
+16.4 +14.0 86 +16 +16 1012.4 960.2 +27.5
18 16.08 ЮЗ 2 н/о {гроза, ливн. осадки} 9/9 1000 м
[Sc]
+14.6 +12.8 89 +14 +14 1012.3 959.8 +27.5 1
21 16.08 ЮЗ 2 н/о 6/6 1000 м
[Sc]
+14.2 +12.0 87 +14 +14 1012.3 959.7
00 17.08 Ю 2 50 км 3/3 1000 м
[Sc Ac lent]
+11.8 +9.1 84 +11 +11 1013.0 959.9
03 17.08 Ю 2 50 км 8/3 1000 м
[Sc Ac trans Ci fib]
+19.0 +10.2 57 +20 +23 1011.4 959.7
06 17.08 Ю 2 50 км 8/3 1000 м
[Cu hum Ci ing]
+24.6 +6.1 30 +24 +33 комфорт 1009.8 959.0 +11.3
09 17.08 ЮЗ 2 50 км 8/8 1000 м
[Cu med, cong]
+26.8 +5.2 25 +26 +28 жарко 1008.1 957.8
12 17.08 ЮЗ 2 50 км 9/6 1000 м
[Sc Ci fib]
+26.7 +4.7 24 +26 +26 жарко 1008.1 957.7
15 17.08 штиль 0 н/о 8/8 1000 м
[Sc]
+18.9 +10.3 57 +20 +20 1011.3 959.5 +28.0
18 17.08 штиль 0 н/о 8/3 1000 м
[Sc Ac As]
+17.0 +9.9 63 +17 +17 1012.1 960.0 +28.0
21 17.08 З 2 н/о 4/0
[Ac As]
+14.4 +10.3 76 +14 +14 1012.6 960.0
00 18.08 З 2 50 км 3/0
[Ac As]
+13.6 +10.6 82 +13 +13 1013.2 960.4
03 18.08 З 2 50 км 6/0
[Ac As Ci fib]
+17.2 +11.4 69 +18 +22 1013.1 961.0
06 18.08 ЮЗ 4 50 км 8/8 1000 м
[Cu med, cong]
+22.4 +10.2 46 +24 +26 комфорт 1011.8 960.6 +13.1

 

Местоположение метеостанции Жангизтобе (Восточно-Казахстанская область, Казахстан): широта 49.22 долгота 81.22 высота над уровнем моря 455 м.

В архиве по умолчанию представлена погода в Жангизтобе за последнюю неделю. Архивные данные за месяц целиком и за предыдущие месяцы, начиная с января 2011 года, Вы можете получить, выбрав интересующий диапазон дат из раскрывающегося списка и нажав кнопку "Ввод!".


*Определитесь, кто Вы:
робот инопланетянин человек

Внимание! Время в таблицах - всемирное. Для получения местного времени необходимо прибавить поправку, которая равна 6 ч.

Смотрите также архив погоды в соседних городах и на ближайших метеорологических станциях:

Погода в Кентерлау (Восточно-Казахстанская область, Казахстан) (29 км)
Погода в Шаре (Восточно-Казахстанская область, Казахстан) (42 км)
Погода в Шалабае (Восточно-Казахстанская область, Казахстан) (57 км)
Погода в Кокпекты (Восточно-Казахстанская область, Казахстан) (99 км)
Погода в Кайсеновой (Восточно-Казахстанская область, Казахстан) (117 км)
Погода в Таврии (Восточно-Казахстанская область, Казахстан) (121 км)
Погода в Первомайском (Восточно-Казахстанская область, Казахстан) (130 км)
Погода в Шульбинске (Восточно-Казахстанская область, Казахстан) (130 км)
Погода в Глубоком (Восточно-Казахстанская область, Казахстан) (130 км)
Погода в Усть-Каменогорске (Восточно-Казахстанская область, Казахстан) (131 км)

Пояснения к столбцам:

Ветер - указаны скорость ветра в м/с - средняя за 10 мин, порывы в срок и между сроками (в фигурных скобках) и направление, откуда дует ветер: С - северный, СВ - северо-восточный, В - восточный, ЮВ - юго-восточный, Ю - южный, ЮЗ - юго-западный, З - западный, СЗ - северо-западный.
Видимость - горизонтальная дальность видимости в метрах или километрах. При видимости от 1 до 10 км при отсутствии осадков обычно наблюдается дымка, при ухудшении видимости до 1 км и менее - туман. В сухую погоду видимость может ухудшаться дымом, пылью или мглою.
Явления - указаны атмосферные явления, наблюдавшиеся в срок или в последний час перед сроком; фигурными скобками обозначены явления, наблюдавшиеся между сроками (за 1-3 часа до срока); квадратными скобками обозначены град или гололедные отложения с указанием их диаметра в мм.
Облачность - указаны через наклонную черту общая и нижняя облачность в баллах и высота нижней границы облаков в метрах; квадратными скобками обозначены формы облаков: Ci - перистые, Cs - перисто-слоистые, Cc - перисто-кучевые, Ac - высококучевые, As - высокослоистые, Sc - слоисто-кучевые, Ns - слоисто-дождевые, Cu - кучевые, Cb - кучево-дождевые. Подробнее классификацию облаков см. в Атласе облаков (PDF).
T - Температура воздуха - температура, измеренная на высоте 2 м над землей.
Td - Температура точки росы - температура, при понижении до которой содержащийся в воздухе водяной пар достигнет насыщения.
f - Относительная влажность воздуха - влажноcть воздуха, измеренная на высоте 2 м над землей.
Te - Эффективная температура - температура, которую ощущает одетый по сезону человек в тени. Характеристика душности погоды. При расчете учитывается влияние влажности воздуха и скорости ветра на теплоощущения человека.
Tes - Эффективная температура на солнце - температура, которую ощущает человек, с поправкой на солнечный нагрев. Характеристика знойности погоды. Зависит от высоты солнца над горизонтом, облачности и скорости ветра. Ночью, в пасмурную погоду, а также при ветре 12 м/с и более поправка равна нулю.
P - Атмосферное давление - приведенное к уровню моря атмосферное давление.
Po - Атмосферное давление - измеренное на уровне метеостанции атмосферное давление.
Tmin - Минимальная температура - минимум температуры воздуха на высоте 2 м над землей.
Tmax - Максимальная температура - максимум температуры воздуха на высоте 2 м над землей.
R - Количество осадков - Количество выпавших осадков за период времени, мм. При наведении курсора мыши на число - период времени, за который выпало указанное количество осадков.
R24 - Количество осадков - Количество выпавших осадков за 24 часа, мм.
S - Снежный покров - Высота снежного покрова, см. При наведении курсора мыши на число - состояние снежного покрова и степень покрытия местности в баллах.